QPF
0.00 0.01 0.01 0.01 0.01 0.00 0.00 0.00 0.00 0.01 0.01 0.03 0.03 0.03 0.03 0.04 0.06 0.08 0.06 0.04 0.03 0.02 0.02 0.02 0.03 0.06 0.05 0.04 0.05 0.05 0.03 0.02 0.02 0.01 0.01 0.01 0.01 0.01 0.01 0.01 0.01 0.00 0.00
0.01 0.01 0.01 0.01 0.01 0.01 0.00 0.00 0.00 0.01 0.01 0.02 0.03 0.03 0.04 0.05 0.05 0.06 0.06 0.04 0.03 0.03 0.03 0.03 0.03 0.04 0.06 0.05 0.04 0.06 0.05 0.03 0.02 0.02 0.02 0.02 0.02 0.02 0.02 0.02 0.01 0.01 0.00
0.01 0.01 0.01 0.01 0.01 0.01 0.00 0.00 0.00 0.01 0.01 0.01 0.03 0.04 0.05 0.05 0.06 0.07 0.05 0.04 0.03 0.02 0.02 0.02 0.03 0.03 0.05 0.06 0.05 0.05 0.06 0.05 0.03 0.02 0.01 0.01 0.02 0.02 0.02 0.02 0.02 0.01 0.01
0.01 0.01 0.01 0.02 0.02 0.01 0.01 0.00 0.00 0.01 0.01 0.02 0.03 0.04 0.05 0.06 0.06 0.05 0.04 0.03 0.03 0.02 0.02 0.01 0.01 0.03 0.04 0.05 0.05 0.05 0.05 0.05 0.04 0.03 0.01 0.01 0.01 0.02 0.02 0.02 0.02 0.02 0.02
0.00 0.01 0.02 0.02 0.02 0.02 0.02 0.01 0.01 0.02 0.02 0.03 0.04 0.04 0.05 0.06 0.05 0.04 0.03 0.04 0.04 0.03 0.03 0.03 0.02 0.02 0.03 0.03 0.04 0.05 0.05 0.05 0.05 0.04 0.02 0.01 0.01 0.01 0.02 0.02 0.02 0.03 0.02
0.00 0.01 0.02 0.02 0.02 0.02 0.02 0.03 0.03 0.03 0.03 0.04 0.03 0.03 0.04 0.05 0.03 0.02 0.02 0.02 0.03 0.03 0.03 0.03 0.02 0.02 0.03 0.03 0.02 0.03 0.04 0.05 0.05 0.04 0.03 0.02 0.01 0.01 0.01 0.01 0.02 0.02 0.02
0.00 0.00 0.01 0.02 0.02 0.02 0.02 0.03 0.02 0.02 0.02 0.02 0.02 0.02 0.02 0.02 0.02 0.02 0.01 0.01 0.02 0.03 0.03 0.03 0.02 0.02 0.04 0.04 0.03 0.02 0.03 0.04 0.05 0.05 0.04 0.03 0.02 0.01 0.01 0.01 0.01 0.02 0.02
0.00 0.00 0.00 0.00 0.01 0.02 0.02 0.02 0.02 0.02 0.01 0.01 0.01 0.01 0.01 0.01 0.01 0.01 0.01 0.01 0.01 0.02 0.03 0.03 0.03 0.03 0.04 0.05 0.04 0.03 0.03 0.03 0.04 0.05 0.05 0.04 0.03 0.02 0.01 0.01 0.02 0.02 0.02
0.01 0.00 0.00 0.00 0.00 0.01 0.01 0.01 0.01 0.01 0.01 0.01 0.01 0.01 0.01 0.01 0.01 0.01 0.01 0.01 0.01 0.01 0.02 0.04 0.04 0.04 0.05 0.06 0.05 0.05 0.04 0.04 0.03 0.04 0.05 0.06 0.05 0.03 0.02 0.02 0.02 0.03 0.02
0.01 0.00 0.00 0.00 0.00 0.00 0.00 0.00 0.00 0.00 0.00 0.01 0.01 0.01 0.01 0.01 0.02 0.02 0.02 0.02 0.01 0.01 0.01 0.03 0.03 0.04 0.06 0.07 0.06 0.06 0.05 0.05 0.04 0.03 0.05 0.07 0.07 0.06 0.04 0.03 0.02 0.03 0.03
0.01 0.01 0.00 0.00 0.00 0.00 0.00 0.00 0.00 0.00 0.00 0.01 0.01 0.01 0.02 0.02 0.02 0.02 0.02 0.02 0.02 0.02 0.02 0.02 0.02 0.03 0.05 0.07 0.07 0.06 0.05 0.05 0.04 0.04 0.04 0.05 0.06 0.06 0.05 0.04 0.03 0.02 0.02
0.01 0.01 0.01 0.01 0.00 0.00 0.00 0.00 0.00 0.00 0.00 0.01 0.01 0.01 0.02 0.02 0.03 0.03 0.02 0.02 0.02 0.02 0.02 0.02 0.02 0.02 0.03 0.05 0.06 0.06 0.06 0.05 0.05 0.04 0.04 0.04 0.05 0.06 0.06 0.06 0.05 0.03 0.02
0.00 0.00 0.00 0.00 0.00 0.00 0.00 0.00 0.00 0.00 0.00 0.01 0.01 0.01 0.02 0.02 0.03 0.04 0.03 0.03 0.03 0.03 0.02 0.02 0.03 0.02 0.03 0.03 0.04 0.05 0.06 0.06 0.05 0.05 0.05 0.04 0.04 0.06 0.06 0.06 0.05 0.05 0.04
0.00 0.00 0.00 0.00 0.00 0.00 0.00 0.00 0.00 0.00 0.00 0.00 0.01 0.01 0.01 0.01 0.02 0.04 0.05 0.04 0.03 0.04 0.03 0.03 0.03 0.04 0.04 0.03 0.04 0.05 0.05 0.05 0.05 0.05 0.05 0.05 0.06 0.06 0.06 0.06 0.05 0.05 0.05
0.00 0.00 0.00 0.00 0.00 0.00 0.00 0.00 0.00 0.00 0.00 0.00 0.00 0.01 0.01 0.01 0.02 0.03 0.05 0.05 0.04 0.04 0.03 0.03 0.03 0.04 0.04 0.04 0.04 0.05 0.06 0.05 0.04 0.05 0.05 0.05 0.06 0.06 0.07 0.07 0.06 0.06 0.06
0.00 0.00 0.00 0.00 0.00 0.00 0.00 0.00 0.00 0.01 0.01 0.01 0.01 0.01 0.01 0.02 0.02 0.03 0.04 0.05 0.05 0.03 0.03 0.03 0.03 0.04 0.05 0.04 0.04 0.05 0.06 0.06 0.06 0.05 0.04 0.04 0.05 0.05 0.06 0.07 0.08 0.08 0.08
0.00 0.00 0.00 0.00 0.00 0.00 0.01 0.01 0.01 0.01 0.01 0.02 0.02 0.02 0.02 0.02 0.02 0.03 0.03 0.05 0.05 0.04 0.04 0.04 0.04 0.04 0.05 0.04 0.03 0.03 0.04 0.05 0.06 0.05 0.04 0.04 0.04 0.04 0.05 0.05 0.06 0.07 0.08
0.01 0.01 0.01 0.01 0.01 0.01 0.01 0.01 0.01 0.01 0.02 0.02 0.02 0.02 0.02 0.02 0.02 0.02 0.03 0.04 0.05 0.04 0.05 0.06 0.05 0.05 0.05 0.04 0.03 0.03 0.03 0.03 0.04 0.04 0.03 0.03 0.03 0.03 0.03 0.04 0.04 0.05 0.06
0.02 0.01 0.01 0.02 0.01 0.02 0.02 0.01 0.01 0.01 0.02 0.02 0.02 0.02 0.02 0.02 0.02 0.02 0.02 0.03 0.04 0.04 0.05 0.07 0.06 0.06 0.05 0.04 0.04 0.03 0.02 0.02 0.03 0.03 0.03 0.02 0.02 0.02 0.02 0.03 0.03 0.04 0.04
0.02 0.02 0.02 0.01 0.01 0.01 0.01 0.01 0.01 0.01 0.02 0.02 0.02 0.02 0.02 0.02 0.02 0.02 0.02 0.03 0.04 0.04 0.04 0.06 0.06 0.06 0.05 0.05 0.04 0.03 0.02 0.02 0.02 0.02 0.02 0.02 0.02 0.02 0.02 0.02 0.03 0.03 0.03
0.01 0.01 0.01 0.01 0.01 0.01 0.01 0.01 0.01 0.01 0.01 0.01 0.02 0.02 0.02 0.02 0.02 0.03 0.02 0.02 0.03 0.03 0.03 0.04 0.05 0.05 0.05 0.05 0.05 0.04 0.03 0.02 0.02 0.02 0.02 0.02 0.02 0.02 0.02 0.02 0.03 0.03 0.02
0.01 0.01 0.01 0.01 0.01 0.01 0.01 0.01 0.01 0.01 0.01 0.01 0.01 0.01 0.01 0.01 0.01 0.02 0.02 0.02 0.02 0.03 0.03 0.03 0.03 0.03 0.04 0.04 0.04 0.04 0.03 0.03 0.03 0.02 0.02 0.01 0.02 0.02 0.02 0.03 0.03 0.04 0.03
0.01 0.01 0.01 0.01 0.01 0.01 0.01 0.01 0.01 0.01 0.01 0.01 0.01 0.01 0.01 0.01 0.01 0.01 0.02 0.02 0.02 0.02 0.02 0.03 0.03 0.03 0.02 0.02 0.03 0.04 0.04 0.03 0.02 0.02 0.02 0.02 0.02 0.02 0.03 0.03 0.04 0.04 0.04
0.00 0.00 0.00 0.01 0.00 0.00 0.01 0.01 0.01 0.01 0.01 0.01 0.00 0.00 0.00 0.00 0.00 0.01 0.01 0.01 0.01 0.01 0.02 0.03 0.03 0.03 0.03 0.02 0.02 0.03 0.04 0.04 0.03 0.02 0.02 0.02 0.02 0.02 0.02 0.03 0.04 0.04 0.05
0.00 0.00 0.00 0.00 0.00 0.00 0.00 0.00 0.00 0.00 0.00 0.00 0.00 0.00 0.00 0.00 0.00 0.00 0.00 0.01 0.01 0.02 0.02 0.03 0.04 0.04 0.04 0.04 0.04 0.04 0.04 0.04 0.04 0.03 0.03 0.02 0.02 0.02 0.02 0.02 0.03 0.04 0.05
0.00 0.00 0.00 0.00 0.00 0.00 0.00 0.00 0.00 0.00 0.00 0.00 0.00 0.00 0.00 0.00 0.00 0.00 0.00 0.00 0.00 0.01 0.01 0.02 0.03 0.03 0.04 0.04 0.04 0.05 0.05 0.04 0.04 0.04 0.03 0.02 0.02 0.02 0.02 0.02 0.02 0.02 0.03
MSLP
1016.55 1017.68 1018.88 1020.07 1021.20 1022.25 1023.19 1024.01 1024.72 1025.34 1025.87 1026.34 1026.74 1027.10 1027.43 1027.72 1027.99 1028.25 1028.49 1028.72 1028.93 1029.10 1029.22 1029.27 1029.25 1029.15 1028.97 1028.70 1028.35 1027.95 1027.51 1027.06 1026.62 1026.22 1025.87 1025.60 1025.42 1025.32 1025.29 1025.32 1025.37 1025.43 1025.46
1015.37 1016.54 1017.78 1019.05 1020.28 1021.42 1022.46 1023.38 1024.18 1024.85 1025.43 1025.91 1026.33 1026.69 1027.01 1027.31 1027.60 1027.89 1028.18 1028.46 1028.72 1028.95 1029.12 1029.22 1029.25 1029.19 1029.03 1028.80 1028.49 1028.14 1027.74 1027.33 1026.93 1026.56 1026.24 1025.98 1025.78 1025.65 1025.58 1025.56 1025.56 1025.57 1025.58
1014.43 1015.56 1016.80 1018.08 1019.34 1020.55 1021.66 1022.65 1023.52 1024.26 1024.89 1025.41 1025.84 1026.20 1026.52 1026.82 1027.12 1027.41 1027.72 1028.04 1028.34 1028.62 1028.85 1029.02 1029.10 1029.10 1029.02 1028.85 1028.61 1028.32 1028.00 1027.67 1027.34 1027.02 1026.74 1026.50 1026.30 1026.15 1026.03 1025.95 1025.88 1025.83 1025.78
1013.82 1014.88 1016.05 1017.27 1018.50 1019.69 1020.82 1021.86 1022.78 1023.59 1024.27 1024.83 1025.29 1025.67 1025.99 1026.27 1026.55 1026.85 1027.16 1027.49 1027.82 1028.15 1028.44 1028.68 1028.84 1028.93 1028.93 1028.85 1028.71 1028.52 1028.29 1028.05 1027.81 1027.57 1027.35 1027.14 1026.96 1026.79 1026.64 1026.49 1026.36 1026.23 1026.09
1013.61 1014.55 1015.58 1016.67 1017.80 1018.92 1020.01 1021.05 1022.00 1022.85 1023.58 1024.20 1024.69 1025.09 1025.41 1025.69 1025.96 1026.24 1026.54 1026.88 1027.24 1027.60 1027.96 1028.26 1028.51 1028.69 1028.79 1028.81 1028.78 1028.69 1028.57 1028.44 1028.29 1028.14 1027.99 1027.84 1027.68 1027.52 1027.34 1027.15 1026.95 1026.74 1026.51
1013.75 1014.53 1015.39 1016.30 1017.26 1018.25 1019.26 1020.25 1021.20 1022.08 1022.85 1023.51 1024.05 1024.48 1024.82 1025.10 1025.36 1025.62 1025.92 1026.26 1026.64 1027.04 1027.44 1027.81 1028.14 1028.41 1028.60 1028.72 1028.79 1028.80 1028.79 1028.75 1028.70 1028.64 1028.58 1028.49 1028.38 1028.24 1028.06 1027.84 1027.58 1027.30 1026.99
1014.12 1014.74 1015.40 1016.10 1016.86 1017.69 1018.56 1019.48 1020.39 1021.26 1022.07 1022.77 1023.36 1023.82 1024.19 1024.49 1024.75 1025.02 1025.32 1025.66 1026.05 1026.48 1026.93 1027.36 1027.76 1028.09 1028.36 1028.57 1028.71 1028.81 1028.87 1028.92 1028.96 1028.98 1028.99 1028.98 1028.93 1028.83 1028.67 1028.44 1028.16 1027.82 1027.44
1014.56 1015.02 1015.48 1015.98 1016.53 1017.17 1017.90 1018.71 1019.56 1020.41 1021.23 1021.96 1022.59 1023.10 1023.51 1023.84 1024.12 1024.41 1024.72 1025.08 1025.49 1025.95 1026.43 1026.91 1027.35 1027.74 1028.06 1028.32 1028.51 1028.66 1028.78 1028.88 1028.98 1029.08 1029.16 1029.22 1029.23 1029.19 1029.07 1028.87 1028.58 1028.23 1027.80
1014.89 1015.22 1015.52 1015.83 1016.20 1016.66 1017.24 1017.92 1018.70 1019.51 1020.31 1021.06 1021.72 1022.28 1022.73 1023.10 1023.43 1023.75 1024.09 1024.48 1024.93 1025.42 1025.93 1026.44 1026.91 1027.33 1027.68 1027.96 1028.18 1028.35 1028.49 1028.62 1028.76 1028.90 1029.04 1029.16 1029.25 1029.27 1029.21 1029.05 1028.80 1028.44 1028.01
1015.00 1015.23 1015.41 1015.58 1015.79 1016.11 1016.55 1017.12 1017.80 1018.55 1019.32 1020.06 1020.73 1021.32 1021.82 1022.24 1022.62 1022.99 1023.38 1023.82 1024.31 1024.83 1025.38 1025.92 1026.41 1026.85 1027.21 1027.49 1027.70 1027.87 1028.02 1028.16 1028.31 1028.48 1028.66 1028.84 1028.98 1029.07 1029.07 1028.97 1028.76 1028.44 1028.02
1014.83 1015.01 1015.12 1015.20 1015.32 1015.52 1015.84 1016.30 1016.88 1017.55 1018.26 1018.96 1019.62 1020.22 1020.74 1021.21 1021.64 1022.07 1022.53 1023.03 1023.57 1024.15 1024.74 1025.31 1025.83 1026.28 1026.64 1026.92 1027.12 1027.28 1027.41 1027.55 1027.70 1027.88 1028.09 1028.30 1028.49 1028.63 1028.69 1028.65 1028.50 1028.22 1027.83
1014.45 1014.62 1014.71 1014.75 1014.81 1014.93 1015.17 1015.53 1016.00 1016.57 1017.18 1017.81 1018.43 1019.00 1019.53 1020.03 1020.51 1021.00 1021.53 1022.10 1022.71 1023.35 1023.99 1024.60 1025.15 1025.61 1025.99 1026.27 1026.48 1026.63 1026.75 1026.88 1027.03 1027.22 1027.43 1027.66 1027.88 1028.06 1028.16 1028.17 1028.06 1027.83 1027.47
1013.99 1014.18 1014.28 1014.32 1014.36 1014.44 1014.60 1014.86 1015.22 1015.67 1016.16 1016.69 1017.22 1017.74 1018.25 1018.75 1019.27 1019.81 1020.40 1021.04 1021.72 1022.42 1023.12 1023.78 1024.37 1024.87 1025.27 1025.58 1025.80 1025.96 1026.10 1026.23 1026.38 1026.56 1026.77 1027.00 1027.23 1027.42 1027.55 1027.58 1027.51 1027.31 1027.00
1013.62 1013.83 1013.95 1014.02 1014.06 1014.11 1014.21 1014.38 1014.62 1014.93 1015.29 1015.68 1016.10 1016.54 1017.00 1017.48 1018.01 1018.59 1019.23 1019.92 1020.67 1021.43 1022.18 1022.89 1023.53 1024.08 1024.52 1024.87 1025.12 1025.32 1025.48 1025.63 1025.79 1025.98 1026.18 1026.40 1026.62 1026.80 1026.92 1026.96 1026.89 1026.72 1026.44
1013.47 1013.70 1013.85 1013.94 1013.98 1014.01 1014.06 1014.14 1014.26 1014.42 1014.63 1014.88 1015.17 1015.51 1015.89 1016.33 1016.85 1017.44 1018.11 1018.84 1019.62 1020.42 1021.22 1021.97 1022.65 1023.25 1023.75 1024.14 1024.46 1024.70 1024.91 1025.09 1025.27 1025.47 1025.67 1025.87 1026.05 1026.21 1026.30 1026.32 1026.25 1026.09 1025.83
1013.62 1013.85 1014.01 1014.11 1014.16 1014.16 1014.15 1014.14 1014.15 1014.18 1014.24 1014.35 1014.51 1014.74 1015.04 1015.43 1015.91 1016.48 1017.15 1017.89 1018.68 1019.50 1020.31 1021.08 1021.80 1022.43 1022.97 1023.42 1023.79 1024.09 1024.35 1024.58 1024.79 1024.99 1025.19 1025.37 1025.52 1025.64 1025.69 1025.68 1025.60 1025.43 1025.19
1014.07 1014.28 1014.43 1014.51 1014.54 1014.52 1014.46 1014.37 1014.27 1014.19 1014.13 1014.11 1014.16 1014.29 1014.51 1014.83 1015.27 1015.81 1016.45 1017.16 1017.93 1018.72 1019.52 1020.28 1020.99 1021.63 1022.19 1022.68 1023.10 1023.46 1023.77 1024.04 1024.28 1024.50 1024.69 1024.85 1024.97 1025.05 1025.06 1025.02 1024.91 1024.74 1024.52
1014.75 1014.90 1015.01 1015.07 1015.07 1015.01 1014.90 1014.75 1014.58 1014.41 1014.26 1014.16 1014.12 1014.17 1014.32 1014.59 1014.97 1015.46 1016.05 1016.71 1017.41 1018.15 1018.88 1019.59 1020.26 1020.87 1021.43 1021.93 1022.37 1022.76 1023.11 1023.42 1023.69 1023.92 1024.11 1024.25 1024.35 1024.39 1024.38 1024.31 1024.19 1024.03 1023.82
1015.54 1015.62 1015.67 1015.68 1015.64 1015.54 1015.39 1015.20 1014.98 1014.76 1014.56 1014.41 1014.33 1014.33 1014.44 1014.66 1014.99 1015.42 1015.93 1016.51 1017.13 1017.76 1018.40 1019.02 1019.61 1020.16 1020.68 1021.15 1021.59 1021.99 1022.35 1022.68 1022.96 1023.21 1023.40 1023.54 1023.62 1023.65 1023.62 1023.54 1023.42 1023.27 1023.10
1016.34 1016.33 1016.31 1016.26 1016.17 1016.04 1015.86 1015.64 1015.41 1015.17 1014.96 1014.79 1014.69 1014.68 1014.76 1014.95 1015.23 1015.59 1016.02 1016.50 1017.01 1017.53 1018.05 1018.55 1019.04 1019.50 1019.94 1020.36 1020.76 1021.14 1021.49 1021.82 1022.11 1022.36 1022.55 1022.69 1022.77 1022.80 1022.77 1022.70 1022.60 1022.48 1022.35
1017.09 1016.99 1016.90 1016.78 1016.65 1016.48 1016.28 1016.06 1015.83 1015.60 1015.39 1015.23 1015.14 1015.12 1015.18 1015.34 1015.57 1015.87 1016.21 1016.59 1016.98 1017.38 1017.76 1018.14 1018.50 1018.86 1019.20 1019.55 1019.89 1020.22 1020.55 1020.86 1021.14 1021.39 1021.59 1021.73 1021.83 1021.87 1021.86 1021.82 1021.76 1021.68 1021.59
1017.79 1017.62 1017.45 1017.28 1017.10 1016.91 1016.69 1016.46 1016.23 1016.01 1015.82 1015.67 1015.58 1015.56 1015.60 1015.72 1015.90 1016.13 1016.39 1016.66 1016.94 1017.21 1017.47 1017.72 1017.96 1018.21 1018.46 1018.72 1018.99 1019.27 1019.56 1019.84 1020.10 1020.34 1020.54 1020.70 1020.81 1020.88 1020.91 1020.91 1020.90 1020.87 1020.83
1018.49 1018.26 1018.04 1017.82 1017.60 1017.38 1017.14 1016.90 1016.66 1016.44 1016.24 1016.09 1015.99 1015.94 1015.96 1016.02 1016.14 1016.28 1016.45 1016.62 1016.79 1016.95 1017.10 1017.24 1017.38 1017.53 1017.69 1017.87 1018.08 1018.30 1018.54 1018.79 1019.03 1019.26 1019.46 1019.63 1019.77 1019.87 1019.95 1020.00 1020.04 1020.06 1020.08
1019.27 1019.00 1018.75 1018.49 1018.24 1017.97 1017.70 1017.43 1017.16 1016.91 1016.69 1016.50 1016.35 1016.25 1016.20 1016.20 1016.23 1016.29 1016.36 1016.43 1016.50 1016.56 1016.62 1016.67 1016.73 1016.80 1016.89 1017.01 1017.16 1017.33 1017.53 1017.75 1017.97 1018.18 1018.39 1018.57 1018.74 1018.88 1019.00 1019.10 1019.19 1019.27 1019.34
1020.17 1019.90 1019.62 1019.34 1019.04 1018.74 1018.42 1018.10 1017.78 1017.47 1017.18 1016.91 1016.69 1016.50 1016.36 1016.26 1016.18 1016.14 1016.11 1016.08 1016.06 1016.04 1016.02 1016.01 1016.01 1016.03 1016.07 1016.14 1016.25 1016.39 1016.56 1016.75 1016.95 1017.15 1017.36 1017.56 1017.74 1017.91 1018.08 1018.23 1018.37 1018.50 1018.61
1021.21 1020.94 1020.66 1020.36 1020.03 1019.68 1019.30 1018.91 1018.52 1018.12 1017.74 1017.37 1017.04 1016.74 1016.48 1016.25 1016.06 1015.90 1015.76 1015.64 1015.53 1015.43 1015.35 1015.29 1015.25 1015.23 1015.25 1015.30 1015.38 1015.50 1015.64 1015.81 1016.00 1016.20 1016.40 1016.60 1016.81 1017.01 1017.20 1017.40 1017.58 1017.75 1017.89
Thickness
5543 5539 5536 5534 5532 5532 5531 5530 5529 5528 5528 5528 5529 5531 5532 5533 5534 5536 5538 5539 5541 5542 5543 5546 5548 5549 5551 5553 5554 5556 5558 5560 5561 5565 5568 5571 5573 5575 5576 5578 5580 5582 5584
5534 5530 5527 5525 5524 5523 5522 5521 5520 5519 5518 5519 5519 5521 5522 5523 5524 5525 5527 5528 5529 5531 5532 5534 5537 5538 5539 5541 5542 5543 5546 5548 5549 5553 5557 5563 5566 5566 5566 5567 5569 5572 5574
5526 5523 5519 5517 5516 5514 5513 5512 5511 5510 5509 5509 5509 5509 5510 5512 5514 5514 5516 5517 5517 5519 5520 5522 5524 5525 5527 5529 5531 5531 5533 5536 5537 5538 5543 5549 5556 5555 5557 5557 5559 5561 5563
5516 5513 5511 5509 5507 5506 5504 5502 5502 5501 5499 5499 5499 5501 5504 5505 5504 5504 5504 5504 5505 5506 5508 5509 5511 5512 5515 5517 5519 5519 5521 5523 5525 5526 5528 5532 5536 5539 5546 5548 5549 5549 5552
5505 5503 5500 5499 5497 5496 5494 5492 5491 5491 5490 5490 5490 5491 5492 5493 5492 5492 5493 5493 5494 5494 5495 5497 5498 5500 5502 5504 5506 5507 5508 5511 5513 5515 5516 5517 5520 5524 5528 5535 5538 5539 5541
5494 5492 5490 5488 5486 5485 5483 5482 5482 5481 5480 5480 5479 5480 5481 5481 5481 5481 5482 5482 5482 5482 5483 5484 5485 5487 5489 5491 5493 5494 5495 5498 5500 5502 5503 5506 5509 5513 5515 5520 5524 5527 5530
5482 5481 5479 5477 5476 5475 5473 5472 5472 5471 5469 5469 5469 5469 5469 5469 5470 5470 5470 5470 5471 5471 5472 5473 5473 5475 5476 5478 5479 5482 5483 5485 5487 5489 5491 5493 5496 5498 5501 5504 5508 5512 5517
5471 5469 5467 5466 5465 5463 5462 5461 5461 5460 5459 5459 5458 5457 5457 5457 5458 5458 5458 5459 5459 5460 5460 5461 5462 5463 5464 5466 5467 5469 5470 5472 5475 5477 5478 5480 5483 5485 5488 5490 5492 5497 5504
5460 5458 5456 5454 5453 5452 5451 5450 5450 5449 5448 5448 5447 5446 5446 5446 5447 5447 5447 5447 5448 5448 5448 5449 5450 5451 5453 5454 5455 5457 5459 5460 5463 5466 5467 5469 5471 5472 5475 5477 5479 5481 5489
5449 5447 5445 5443 5442 5441 5439 5439 5438 5438 5437 5437 5436 5436 5435 5435 5435 5436 5437 5437 5437 5437 5437 5438 5439 5440 5441 5442 5443 5446 5447 5449 5452 5454 5456 5458 5459 5460 5462 5464 5466 5468 5473
5436 5435 5433 5432 5430 5429 5428 5426 5427 5426 5426 5426 5425 5425 5425 5424 5424 5426 5427 5427 5427 5426 5427 5427 5428 5429 5429 5430 5432 5435 5436 5437 5439 5441 5444 5446 5446 5448 5450 5451 5453 5456 5459
5423 5421 5420 5419 5418 5417 5416 5415 5415 5415 5414 5414 5414 5413 5413 5413 5414 5415 5416 5416 5416 5416 5415 5416 5416 5417 5418 5419 5421 5424 5425 5426 5428 5430 5432 5434 5435 5436 5437 5439 5441 5444 5446
5412 5410 5409 5408 5407 5405 5404 5403 5403 5402 5402 5402 5402 5402 5402 5402 5404 5404 5403 5404 5404 5405 5404 5405 5406 5406 5407 5409 5411 5413 5414 5415 5417 5418 5419 5421 5422 5424 5425 5426 5428 5430 5432
5401 5399 5398 5396 5395 5393 5391 5391 5390 5389 5389 5389 5389 5390 5390 5391 5391 5392 5392 5392 5393 5393 5394 5394 5395 5396 5397 5398 5400 5400 5402 5403 5405 5406 5407 5409 5410 5411 5412 5413 5415 5416 5417
5391 5389 5386 5384 5382 5380 5379 5378 5378 5377 5377 5377 5377 5378 5378 5378 5379 5379 5380 5381 5381 5381 5383 5383 5383 5385 5386 5387 5388 5388 5390 5392 5393 5394 5395 5396 5397 5397 5398 5400 5401 5402 5404
5382 5378 5375 5372 5369 5367 5366 5365 5365 5365 5365 5366 5366 5365 5366 5367 5367 5368 5368 5369 5369 5369 5370 5371 5372 5374 5375 5375 5375 5376 5378 5380 5381 5382 5383 5383 5384 5385 5385 5386 5387 5388 5390
5371 5368 5364 5361 5358 5356 5354 5353 5353 5353 5353 5353 5354 5354 5354 5355 5355 5355 5355 5356 5357 5358 5358 5359 5360 5362 5363 5362 5362 5363 5365 5367 5368 5369 5370 5370 5372 5372 5372 5373 5373 5374 5375
5359 5356 5354 5351 5348 5345 5343 5342 5341 5341 5341 5342 5342 5342 5342 5342 5342 5343 5343 5344 5344 5345 5346 5347 5347 5348 5350 5349 5349 5350 5352 5354 5355 5355 5356 5357 5359 5359 5359 5360 5361 5363 5364
5347 5345 5342 5339 5336 5334 5332 5331 5331 5330 5330 5331 5331 5330 5330 5330 5330 5331 5332 5332 5332 5333 5334 5334 5335 5336 5337 5336 5335 5336 5338 5341 5342 5342 5344 5345 5346 5347 5346 5347 5349 5351 5352
5334 5332 5330 5328 5326 5324 5321 5321 5321 5321 5321 5320 5320 5319 5319 5319 5319 5319 5319 5319 5319 5320 5321 5321 5322 5322 5324 5323 5323 5323 5325 5327 5329 5330 5332 5333 5334 5333 5332 5333 5335 5337 5340
5323 5321 5319 5317 5315 5313 5311 5311 5311 5311 5310 5309 5309 5308 5308 5308 5308 5308 5307 5307 5307 5308 5308 5308 5308 5309 5310 5310 5310 5310 5311 5313 5315 5317 5319 5320 5320 5320 5320 5321 5322 5324 5325
5312 5310 5308 5306 5304 5302 5301 5301 5301 5300 5298 5298 5298 5298 5297 5297 5297 5296 5296 5296 5295 5296 5296 5296 5297 5298 5297 5297 5298 5298 5298 5299 5301 5304 5307 5308 5308 5308 5308 5309 5311 5311 5311
5301 5299 5297 5295 5293 5292 5290 5290 5289 5287 5287 5287 5287 5286 5286 5285 5285 5284 5285 5284 5284 5284 5284 5285 5286 5286 5285 5285 5286 5286 5287 5287 5288 5291 5293 5294 5295 5295 5297 5298 5298 5298 5298
5291 5288 5286 5285 5283 5281 5279 5278 5277 5276 5276 5276 5275 5275 5275 5275 5273 5273 5273 5273 5273 5272 5272 5273 5273 5274 5274 5274 5274 5274 5275 5275 5276 5277 5279 5280 5282 5283 5284 5286 5286 5286 5286
5280 5278 5277 5275 5273 5270 5269 5267 5266 5265 5265 5264 5264 5263 5263 5263 5263 5262 5261 5261 5261 5260 5260 5261 5261 5261 5263 5263 5262 5263 5264 5263 5263 5264 5266 5268 5269 5271 5272 5273 5274 5274 5274
5271 5269 5267 5265 5263 5260 5259 5257 5256 5255 5254 5254 5254 5253 5253 5252 5252 5252 5252 5251 5250 5250 5249 5249 5249 5250 5251 5251 5251 5252 5252 5252 5251 5251 5253 5254 5256 5257 5258 5259 5260 5261 5262